This is the latest recevied weather packets stored in our database for station/object SP3VBV-2. If no packets are shown the sender has not sent any weather packets the latest 10 day(s).
| Time | Temp. | Humidity | Pressure | Rain* | Wind** | Luminosity | Snow |
|---|---|---|---|---|---|---|---|
| 1777558600 | 12.78° C | 42% | 1028 hPa | - | - | - | - |
| 1777558000 | 12.22° C | 43% | 1028.2 hPa | - | - | - | - |
| 1777557400 | 12.22° C | 39% | 1028.3 hPa | - | - | - | - |
| 1777556800 | 13.33° C | 39% | 1028.3 hPa | - | - | - | - |
| 1777556204 | 13.33° C | 40% | 1028.3 hPa | - | - | - | - |
| 1777555600 | 12.78° C | 40% | 1028.5 hPa | - | - | - | - |
| 1777555000 | 13.33° C | 39% | 1028.6 hPa | - | - | - | - |
| 1777554400 | 12.78° C | 40% | 1028.6 hPa | - | - | - | - |
| 1777553800 | 12.78° C | 40% | 1028.6 hPa | - | - | - | - |
| 1777553200 | 12.22° C | 39% | 1028.8 hPa | - | - | - | - |
| 1777552600 | 12.22° C | 40% | 1028.8 hPa | - | - | - | - |
| 1777552000 | 12.22° C | 40% | 1029.1 hPa | - | - | - | - |
| 1777551400 | 12.78° C | 39% | 1029 hPa | - | - | - | - |
| 1777550803 | 12.22° C | 38% | 1029.1 hPa | - | - | - | - |
| 1777550200 | 12.22° C | 39% | 1029.1 hPa | - | - | - | - |
| 1777549601 | 12.22° C | 40% | 1029.2 hPa | - | - | - | - |
| 1777549000 | 12.22° C | 40% | 1029.5 hPa | - | - | - | - |
| 1777548119 | 11.11° C | 39% | 1029.7 hPa | - | - | - | - |
| 1777547528 | 11.67° C | 38% | 1029.7 hPa | - | - | - | - |
| 1777546954 | 11.67° C | 40% | 1029.6 hPa | - | - | - | - |
| 1777546323 | 11.11° C | 40% | 1029.8 hPa | - | - | - | - |
| 1777545720 | 11.67° C | 42% | 1030 hPa | - | - | - | - |
| 1777545119 | 11.11° C | 41% | 1030 hPa | - | - | - | - |
| 1777544537 | 11.11° C | 41% | 1030.1 hPa | - | - | - | - |
| 1777543919 | 10.56° C | 40% | 1030.3 hPa | - | - | - | - |
* Rain since midnight (hover to see other rain measurements)
** Current wind speed in m/s (hover to see current wind gust speed)